Year,Month,Day,Hour,Minute,Value (Times are PST for temperature in C)
2015,02,22,08,04,0.20
2015,02,22,08,05,0.20
2015,02,22,08,06,0.20
2015,02,22,08,07,0.20
2015,02,22,08,08,0.20
2015,02,22,08,09,0.20
2015,02,22,08,10,0.20
2015,02,22,08,11,0.20
2015,02,22,08,12,0.20
2015,02,22,08,13,0.20
2015,02,22,08,14,0.20
2015,02,22,08,15,0.20
2015,02,22,08,47,2.30
2015,02,22,08,48,2.30
2015,02,22,08,49,2.40
2015,02,22,08,50,2.50
2015,02,22,08,51,2.60
2015,02,22,08,52,2.60
2015,02,22,08,53,2.70
2015,02,22,08,54,2.80
2015,02,22,08,55,2.90
2015,02,22,08,56,3.00
2015,02,22,08,57,3.00
2015,02,22,08,58,3.10
2015,02,22,08,59,3.20
2015,02,22,09,00,3.20
2015,02,22,09,01,3.30
2015,02,22,09,02,3.30
2015,02,22,09,03,3.40
2015,02,22,09,04,3.50
2015,02,22,09,05,3.50
2015,02,22,09,06,3.60
2015,02,22,09,07,3.70
2015,02,22,09,08,3.80
2015,02,22,09,09,3.90
2015,02,22,09,10,4.00
2015,02,22,09,11,4.10
2015,02,22,09,12,4.20
2015,02,22,09,13,4.30
2015,02,22,09,14,4.30
2015,02,22,09,15,4.40
2015,02,22,09,16,4.50
2015,02,22,09,17,4.60
2015,02,22,09,18,4.70
2015,02,22,09,19,4.80
2015,02,22,09,20,4.90
2015,02,22,09,21,4.90
2015,02,22,09,22,5.00
2015,02,22,09,23,5.10
2015,02,22,09,24,5.10
2015,02,22,09,25,5.20
2015,02,22,09,26,5.30
2015,02,22,09,27,5.30
2015,02,22,09,28,5.40
2015,02,22,09,29,5.50
2015,02,22,09,30,5.60
2015,02,22,09,31,5.70
2015,02,22,09,32,5.80
2015,02,22,09,33,5.80
2015,02,22,09,34,5.90
2015,02,22,09,35,6.00
2015,02,22,09,36,6.00
2015,02,22,09,37,6.10
2015,02,22,09,38,6.20
2015,02,22,09,39,6.20
2015,02,22,09,40,6.20
2015,02,22,09,41,6.30
2015,02,22,09,42,6.30
2015,02,22,09,43,6.30
2015,02,22,09,44,6.40
2015,02,22,09,45,6.40
2015,02,22,09,46,6.50
2015,02,22,09,47,6.50
2015,02,22,09,48,6.60
2015,02,22,09,49,6.60
2015,02,22,09,50,6.70
2015,02,22,09,51,6.70
2015,02,22,09,52,6.70
2015,02,22,09,53,6.70
2015,02,22,09,54,6.80
2015,02,22,09,55,6.80
2015,02,22,09,56,6.80
2015,02,22,09,57,6.80
2015,02,22,09,58,6.80
2015,02,22,09,59,6.80
2015,02,22,10,00,6.80
2015,02,22,10,01,6.80
2015,02,22,10,02,6.80
2015,02,22,10,03,6.80
2015,02,22,10,04,6.80
2015,02,22,10,05,6.80
2015,02,22,10,06,6.80
2015,02,22,10,07,6.80
2015,02,22,10,08,6.80
2015,02,22,10,09,6.90
2015,02,22,10,10,6.90
2015,02,22,10,11,6.90
2015,02,22,10,12,7.00
2015,02,22,10,13,7.00
2015,02,22,10,14,7.10
2015,02,22,10,15,7.20
2015,02,22,10,16,7.20
2015,02,22,10,17,7.20
2015,02,22,10,18,7.20
2015,02,22,10,19,7.10
2015,02,22,10,20,7.10
2015,02,22,10,21,7.10
2015,02,22,10,22,7.10
2015,02,22,10,23,7.20
2015,02,22,10,24,7.20
2015,02,22,10,25,7.20
2015,02,22,10,26,7.20
2015,02,22,10,27,7.10
2015,02,22,10,28,7.10
2015,02,22,10,29,7.10
2015,02,22,10,30,7.10
2015,02,22,10,31,7.10
2015,02,22,10,32,7.10
2015,02,22,10,33,7.10
2015,02,22,10,34,7.10
2015,02,22,10,35,7.10
2015,02,22,10,36,7.20
2015,02,22,10,37,7.20
2015,02,22,10,38,7.20
2015,02,22,10,39,7.20
2015,02,22,10,40,7.20
2015,02,22,10,41,7.20
2015,02,22,10,42,7.30
2015,02,22,10,43,7.30
2015,02,22,10,44,7.40
2015,02,22,10,45,7.40
2015,02,22,10,46,7.40
2015,02,22,10,47,7.50
2015,02,22,10,48,7.60
2015,02,22,10,49,7.60
2015,02,22,10,50,7.60
2015,02,22,10,51,7.60
2015,02,22,10,52,7.60
2015,02,22,10,53,7.70
2015,02,22,10,54,7.80
2015,02,22,10,55,7.80
2015,02,22,10,56,7.80
2015,02,22,10,57,7.80
2015,02,22,10,58,7.80
2015,02,22,10,59,7.90
2015,02,22,11,00,7.90
2015,02,22,11,01,8.00
2015,02,22,11,02,8.10
2015,02,22,11,03,8.20
2015,02,22,11,04,8.20
2015,02,22,11,05,8.20
2015,02,22,11,06,8.20
2015,02,22,11,07,8.30
2015,02,22,11,08,8.40
2015,02,22,11,09,8.40
2015,02,22,11,10,8.40
2015,02,22,11,11,8.40
2015,02,22,11,12,8.30
2015,02,22,11,13,8.30
2015,02,22,11,14,8.40
2015,02,22,11,15,8.40
2015,02,22,11,16,8.40
2015,02,22,11,17,8.40
2015,02,22,11,18,8.40
2015,02,22,11,19,8.40
2015,02,22,11,20,8.40
2015,02,22,11,21,8.40
2015,02,22,11,22,8.40
2015,02,22,11,23,8.40
2015,02,22,11,24,8.50
2015,02,22,11,25,8.50
2015,02,22,11,26,8.60
2015,02,22,11,27,8.60
2015,02,22,11,28,8.60
2015,02,22,11,29,8.60
2015,02,22,11,30,8.60
2015,02,22,11,31,8.60
2015,02,22,11,32,8.50
2015,02,22,11,33,8.50
2015,02,22,11,34,8.60
2015,02,22,11,35,8.60
2015,02,22,11,36,8.70
2015,02,22,11,37,8.70
2015,02,22,11,38,8.80
2015,02,22,11,39,9.00
2015,02,22,11,40,9.10
2015,02,22,11,41,9.10
2015,02,22,11,42,9.20
2015,02,22,11,43,9.20
2015,02,22,11,44,9.20
2015,02,22,11,45,9.20
2015,02,22,11,46,9.20
2015,02,22,11,47,9.20
2015,02,22,11,48,9.10
2015,02,22,11,49,9.10
2015,02,22,11,50,9.10
2015,02,22,11,51,9.10
2015,02,22,11,52,9.20
2015,02,22,11,53,9.20
2015,02,22,11,54,9.20
2015,02,22,11,55,9.20
2015,02,22,11,56,9.30
2015,02,22,11,57,9.20
2015,02,22,11,58,9.20
2015,02,22,11,59,9.30
2015,02,22,12,00,9.30
2015,02,22,12,01,9.40
2015,02,22,12,02,9.40
2015,02,22,12,03,9.40
2015,02,22,12,04,9.50
2015,02,22,12,05,9.60
2015,02,22,12,06,9.60
2015,02,22,12,07,9.60
2015,02,22,12,08,9.60
2015,02,22,12,09,9.60
2015,02,22,12,10,9.50
2015,02,22,12,11,9.50
2015,02,22,12,12,9.40
2015,02,22,12,13,9.30
2015,02,22,12,14,9.40
2015,02,22,12,15,9.40
2015,02,22,12,16,9.40
2015,02,22,12,17,9.50
2015,02,22,12,18,9.60
2015,02,22,12,19,9.60
2015,02,22,12,20,9.60
2015,02,22,12,21,9.60
2015,02,22,12,22,9.60
2015,02,22,12,23,9.60
2015,02,22,12,24,9.70
2015,02,22,12,25,9.60
2015,02,22,12,26,9.60
2015,02,22,12,27,9.60
2015,02,22,12,28,9.60
2015,02,22,12,29,9.60
2015,02,22,12,30,9.60
2015,02,22,12,31,9.60
2015,02,22,12,32,9.60
2015,02,22,12,33,9.60
2015,02,22,12,34,9.60
2015,02,22,12,35,9.60
2015,02,22,12,36,9.60
2015,02,22,12,37,9.70
2015,02,22,12,38,9.70
2015,02,22,12,39,9.70
2015,02,22,12,40,9.80
2015,02,22,12,41,9.90
2015,02,22,12,42,9.90
2015,02,22,12,43,9.80
2015,02,22,12,44,9.70
2015,02,22,12,45,9.60
2015,02,22,12,46,9.50
2015,02,22,12,47,9.30
2015,02,22,12,48,9.30
2015,02,22,12,49,9.30
2015,02,22,12,50,9.20
2015,02,22,12,51,9.10
2015,02,22,12,52,9.10
2015,02,22,12,53,9.10
2015,02,22,12,54,9.20
2015,02,22,12,55,9.30
2015,02,22,12,56,9.40
2015,02,22,12,57,9.50
2015,02,22,12,58,9.50
2015,02,22,12,59,9.60
2015,02,22,13,00,9.50
2015,02,22,13,01,9.50
2015,02,22,13,02,9.40
2015,02,22,13,03,9.40
2015,02,22,13,04,9.30
2015,02,22,13,05,9.30
2015,02,22,13,06,9.30
2015,02,22,13,07,9.30
2015,02,22,13,08,9.30
2015,02,22,13,09,9.30
2015,02,22,13,10,9.40
2015,02,22,13,11,9.50
2015,02,22,13,12,9.60
2015,02,22,13,13,9.60
2015,02,22,13,14,9.70
2015,02,22,13,15,9.80
2015,02,22,13,16,9.90
2015,02,22,13,17,9.90
2015,02,22,13,18,9.90
2015,02,22,13,19,10.00
2015,02,22,13,20,9.90
2015,02,22,13,21,9.90
2015,02,22,13,22,9.80
2015,02,22,13,23,9.80
2015,02,22,13,24,10.00
2015,02,22,13,25,10.10
2015,02,22,13,26,10.10
2015,02,22,13,27,10.20
2015,02,22,13,28,10.30
2015,02,22,13,29,10.30
2015,02,22,13,30,10.40
2015,02,22,13,31,10.40
2015,02,22,13,32,10.50
2015,02,22,13,33,10.50
2015,02,22,13,34,10.60
2015,02,22,13,35,10.60
2015,02,22,13,36,10.60
2015,02,22,13,37,10.70
2015,02,22,13,38,10.70
2015,02,22,13,39,10.70
2015,02,22,13,40,10.70
2015,02,22,13,41,10.70
2015,02,22,13,42,10.70
2015,02,22,13,43,10.70
2015,02,22,13,44,10.70
2015,02,22,13,45,10.60
2015,02,22,13,46,10.60
2015,02,22,13,47,10.60
2015,02,22,13,48,10.60
2015,02,22,13,49,10.50
2015,02,22,13,50,10.40
2015,02,22,13,51,10.20
2015,02,22,13,52,10.00
2015,02,22,13,53,9.90
2015,02,22,13,54,9.90
2015,02,22,13,55,9.80
2015,02,22,13,56,9.80
2015,02,22,13,57,9.70
2015,02,22,13,58,9.60
2015,02,22,13,59,9.60
2015,02,22,14,00,9.50
2015,02,22,14,01,9.50
2015,02,22,14,02,9.50
2015,02,22,14,03,9.60
2015,02,22,14,04,9.70
2015,02,22,14,05,9.70
2015,02,22,14,06,9.80
2015,02,22,14,07,9.80
2015,02,22,14,08,9.90
2015,02,22,14,09,9.90
2015,02,22,14,10,9.90
2015,02,22,14,11,9.90
2015,02,22,14,12,9.80
2015,02,22,14,13,9.80
2015,02,22,14,14,9.70
2015,02,22,14,15,9.60
2015,02,22,14,16,9.50
2015,02,22,14,17,9.50
2015,02,22,14,18,9.40
2015,02,22,14,19,9.40
2015,02,22,14,20,9.40
2015,02,22,14,21,9.50
2015,02,22,14,22,9.50
2015,02,22,14,23,9.50
2015,02,22,14,24,9.40
2015,02,22,14,25,9.40
2015,02,22,14,26,9.30
2015,02,22,14,27,9.40
2015,02,22,14,28,9.40
2015,02,22,14,29,9.50
2015,02,22,14,30,9.50
2015,02,22,14,31,9.60
2015,02,22,14,32,9.70
2015,02,22,14,33,9.80
2015,02,22,14,34,9.80
2015,02,22,14,35,9.90
2015,02,22,14,36,10.00
2015,02,22,14,37,10.00
2015,02,22,14,38,10.10
2015,02,22,14,39,10.10
2015,02,22,14,40,10.10
2015,02,22,14,41,10.10
2015,02,22,14,42,10.00
2015,02,22,14,43,10.00
2015,02,22,14,44,10.00
2015,02,22,14,45,10.10
2015,02,22,14,46,10.20
2015,02,22,14,47,10.20
2015,02,22,14,48,10.20
2015,02,22,14,49,10.20
2015,02,22,14,50,10.30
2015,02,22,14,51,10.30
2015,02,22,14,52,10.30
2015,02,22,14,53,10.30
2015,02,22,14,54,10.30
2015,02,22,14,55,10.30
2015,02,22,14,56,10.30
2015,02,22,14,57,10.20
2015,02,22,14,58,10.20
2015,02,22,14,59,10.20
2015,02,22,15,00,10.20
2015,02,22,15,01,10.20
2015,02,22,15,02,10.10
2015,02,22,15,03,10.10
2015,02,22,15,04,10.10
2015,02,22,15,05,10.10
2015,02,22,15,06,10.20
2015,02,22,15,07,10.20
2015,02,22,15,08,10.30
2015,02,22,15,09,10.40
2015,02,22,15,10,10.50
2015,02,22,15,11,10.50
2015,02,22,15,12,10.50
2015,02,22,15,13,10.60
2015,02,22,15,14,10.50
2015,02,22,15,15,10.50
2015,02,22,15,16,10.50
2015,02,22,15,17,10.40
2015,02,22,15,18,10.40
2015,02,22,15,19,10.30
2015,02,22,15,20,10.30
2015,02,22,15,21,10.30
2015,02,22,15,22,10.30
2015,02,22,15,23,10.30
2015,02,22,15,24,10.30
2015,02,22,15,25,10.30
2015,02,22,15,26,10.30
2015,02,22,15,27,10.30
2015,02,22,15,28,10.30
2015,02,22,15,29,10.30
2015,02,22,15,30,10.20
2015,02,22,15,31,10.30
2015,02,22,15,32,10.30
2015,02,22,15,33,10.30
2015,02,22,15,34,10.30
2015,02,22,15,35,10.30
2015,02,22,15,36,10.30
2015,02,22,15,37,10.30
2015,02,22,15,38,10.30
2015,02,22,15,39,10.30
2015,02,22,15,40,10.30
2015,02,22,15,41,10.30
2015,02,22,15,42,10.30
2015,02,22,15,43,10.20
2015,02,22,15,44,10.10
2015,02,22,15,45,10.10
2015,02,22,15,46,10.10
2015,02,22,15,47,10.10
2015,02,22,15,48,10.10
2015,02,22,15,49,10.10
2015,02,22,15,50,10.20
2015,02,22,15,51,10.30
2015,02,22,15,52,10.30
2015,02,22,15,53,10.30
2015,02,22,15,54,10.40
2015,02,22,15,55,10.40
2015,02,22,15,56,10.40
2015,02,22,15,57,10.30
2015,02,22,15,58,10.30
2015,02,22,15,59,10.40
2015,02,22,16,00,10.40
2015,02,22,16,01,10.40
2015,02,22,16,02,10.40
2015,02,22,16,03,10.40
2015,02,22,16,04,10.40
2015,02,22,16,05,10.40
2015,02,22,16,06,10.40
2015,02,22,16,07,10.40
2015,02,22,16,08,10.40
2015,02,22,16,09,10.40
2015,02,22,16,10,10.30
2015,02,22,16,11,10.40
2015,02,22,16,12,10.40
2015,02,22,16,13,10.40
2015,02,22,16,14,10.50
2015,02,22,16,15,10.50
2015,02,22,16,16,10.50
2015,02,22,16,17,10.50
2015,02,22,16,18,10.50
2015,02,22,16,19,10.50
2015,02,22,16,20,10.50
2015,02,22,16,21,10.50
2015,02,22,16,22,10.60
2015,02,22,16,23,10.70
2015,02,22,16,24,10.80
2015,02,22,16,25,10.80
2015,02,22,16,26,10.90
2015,02,22,16,27,11.00
2015,02,22,16,28,11.00
2015,02,22,16,29,11.10
2015,02,22,16,30,11.10
2015,02,22,16,31,11.10
2015,02,22,16,32,11.20
2015,02,22,16,33,11.20
2015,02,22,16,34,11.20
2015,02,22,16,35,11.30
2015,02,22,16,36,11.30
2015,02,22,16,37,11.30
2015,02,22,16,38,11.40
2015,02,22,16,39,11.40
2015,02,22,16,40,11.40
2015,02,22,16,41,11.40
2015,02,22,16,42,11.40
2015,02,22,16,43,11.40
2015,02,22,16,44,11.40
2015,02,22,16,45,11.40
2015,02,22,16,46,11.40
2015,02,22,16,47,11.40
2015,02,22,16,48,11.40
2015,02,22,16,49,11.40
2015,02,22,16,50,11.40
2015,02,22,16,51,11.40
2015,02,22,16,52,11.40
2015,02,22,16,53,11.40
2015,02,22,16,54,11.40
2015,02,22,16,55,11.40
2015,02,22,16,56,11.40
2015,02,22,16,57,11.40
2015,02,22,16,58,11.40
